Meteógrafos Informações Meteorológicas em tempo real
Aeroporto de Congonhas
23-01-2020 23:56

Temperatura atual: 18 graus 64 F    Umidade relativa: 82 %
Velocidade do vento: 06 nós 10 Km/h    Direção: 180 graus S
Ajuste do altímetro ..: 1011 HPA
Visibilidade: Ótima    Tempo presente: Parcialmente Nublado

Observação
Céu nublado a 2000 Pés., Céu encoberto a4500 Pés.
Data Hora BRTTempo°CUmidadePressãoVentoVisib.
23/01 - 22:56   Parcialmente Nublado 18° 82% 1012 Sul-sudeste/10 km/h OK
23/01 - 21:56   Chovendo fraco 18° 82% 1011 Sul-sudeste/12 km/h OK
23/01 - 20:56   Céu Encoberto 19° 68% 1011 Sul-sudeste/10 km/h OK
23/01 - 19:56   Céu Encoberto 19° 72% 1011 Sul-sudeste/14 km/h OK
23/01 - 18:56   Céu Encoberto 19° 77% 1010 Sul-sudeste/18 km/h OK
23/01 - 17:56   Parcialmente Nublado 20° 77% 1010 Sul-sudeste/14 km/h OK
23/01 - 16:56   Céu Encoberto 20° 73% 1010 Sul-sudeste/16 km/h OK
23/01 - 15:56   Céu Encoberto 20° 82% 1011 Sul-sudeste/14 km/h OK
23/01 - 14:56   Poucas nuvens esparsas 20° 82% 1011 Sul-sudeste/16 km/h OK
23/01 - 13:56   Chuvisco fraco 20° 88% 1012 Sul-sudeste/12 km/h OK
23/01 - 12:56   Parcialmente Nublado 20° 82% 1012 Sul-sudeste/12 km/h OK
23/01 - 11:56   Parcialmente Nublado 21° 77% 1013 Este-sudeste/9 km/h 9999
23/01 - 10:56   Parcialmente Nublado 20° 82% 1013 Leste/7 km/h 9999
23/01 - 09:56   Poucas nuvens esparsas 19° 88% 1012 Este-nordeste/7 km/h 9999
23/01 - 08:56   Muitas Nuvens 19° 82% 1013 Sul/7 km/h 9999
23/01 - 07:56   Muitas Nuvens 19° 82% 1013 Sul/7 km/h 9999
23/01 - 06:56   Parcialmente Nublado 19° 77% 1012 Leste/5 km/h 9999
23/01 - 05:56   Céu Limpo 19° 72% 1011 Leste/7 km/h CAVO
23/01 - 04:56   Céu Limpo 19° 77% 1011 Este-sudeste/10 km/h OK
23/01 - 03:56   Chovendo fraco 19° 82% 1012 Sul-sudeste/9 km/h OK
23/01 - 02:56   Céu Limpo 19° 82% 1012 Sudeste/10 km/h CAVO
23/01 - 01:56   Céu Limpo 19° 88% 1013 Este-sudeste/10 km/h CAVO
23/01 - 00:56   Céu Limpo 19° 88% 1014 Sudeste/7 km/h CAVO
22/01 - 23:56   Chovendo fraco 19° 88% 1014 Sudeste/10 km/h OK

Termo de Uso  |   Links Úteis  |   Imprensa  |  Anuncie  |  Fale Conosco  |  Versão Celular  |   Política de Privacidade

Apolo11.com - Todos os direitos reservados - 2000 - 2020

"O Orçamento é uma conta que se faz para saber como aplicar o dinheiro que já se gastou" - Barão de Itararé